Погода в Заозерном

Россия / Тюменская область     56°19′32″N   69°30′49″E
темп.,
°C
ветер,
м/с
пор.,
м/с
влажн.,
%
обл.,
%
осадки,
мм/ч
давл.,
гПа
погр.,
м
22 апреля, чт
чт2223:00+2вюв37670 0.0 1036174
02:00−1вюв38740 0.0 1038189
05:00−1юв48730 0.0 1040236
08:00+2ююв45530 0.0 1042619
11:00+5ююв55395 0.0 10421001
14:00+8ююв56315 0.0 10411262
17:00+8ю56310 0.0 10411373
20:00+5ююв4104642 0.0 1041252
23 апреля, пт
пт2323:00+3ююв51353100 0.0 1041340
02:00+2ююв6135596 0.0 1041374
05:00+1ююв6135896 0.0 1041356
08:00+4ю7115092 0.0 1041503
11:00+9ю7939100 0.0 1040872
14:00+10ю7836100 0.0 10391245
17:00+10ю6836100 0.0 10381201
20:00+7ююв494681 0.0 1037229
24 апреля, сб
сб2423:00+5ююв4115353 0.0 1036239
02:00+3ююв41159100 0.0 1035244
05:00+2ююв4106488 0.0 1034205
08:00+5ю5950100 0.0 1033367
11:00+10ю6836100 0.0 10311135
14:00+11ю6830100 0.0 10291681
17:00+11ю6732100 0.0 10281562
20:00+8ююв4843100 0.0 1028266
25 апреля, вс
вс2523:00+7юв4949100 0.0 1026293
02:00+5юв4854100 0.0 1025228
05:00+4вюв4959100 0.0 1024232
08:00+7юв61150100 0.0 1023447
11:00+10юв71038100 0.0 1022984
14:00+13юв81031100 0.0 10201696
17:00+14юв793095 0.0 10192114
20:00+10вюв613435 0.0 1018305
26 апреля, пн
пн2623:00+8юв513535 0.0 1017292
02:00+5юв48645 0.0 1016161
05:00+5ю378215 0.0 1016130
08:00+10юз697161 0.2 1015528
11:00+13з8114477 0.8 10162054
14:00+14з9113376 0.1 10162787
17:00+14зсз7113258 0.1 10172623
20:00+10зсз484929 0.0 1019220